Webb City, MO

12:09 PM CST on February 10, 2016 (GMT -0600)
Joplin Regional

Weather History for KJLN - August, 2013

Change the Weather History Date:

Tuesday, August 6, 2013

  Actual Average Record
Temperature  
Mean Temperature 80 °F 81 °F  
Max Temperature 90 °F 92 °F 105 °F (1956)
Min Temperature 70 °F 70 °F 56 °F (1948)
Degree Days  
Heating Degree Days 0 0  
Month to date heating degree days 0 0  
Since 1 June heating degree days 12 5  
Since 1 July heating degree days 0 0  
Cooling Degree Days 15 16  
Month to date cooling degree days 82 96  
Year to date cooling degree days 957 1067  
Since 1 June cooling degree days 813 887  
Growing Degree Days 30 (Base 50)    
Moisture  
Dew Point 74 °F    
Average Humidity 79    
Maximum Humidity 93    
Minimum Humidity 64    
Precipitation  
Precipitation 1.37 in 0.10 in 1.37 in (2013)
Month to date precipitation 3.39 0.59  
Year to date precipitation 34.25 28.21  
Sea Level Pressure  
Sea Level Pressure 29.86 in    
Wind  
Wind Speed 8 mph (SSE)    
Max Wind Speed 30 mph    
Max Gust Speed 48 mph    
Visibility 9 miles    
Events Rain , Thunderstorm    
T = Trace of Precipitation, MM = Missing Value Source: NWS Daily Summary

Daily Weather History Graph

Daily Weather History Graph

Search for Another Location

Airport or City:

Trip Planner

Search our weather history database for the weather conditions in past years. The results will help you decide how hot, cold, wet, or windy it might be!

Date:

Astronomy

Aug. 06, 2013 Rise Set
Actual Time 6:27 AM CDT 8:19 PM CDT
Civil Twilight 5:58 AM CDT 8:48 PM CDT
Nautical Twilight 5:24 AM CDT 9:22 PM CDT
Astronomical Twilight 4:47 AM CDT 9:59 PM CDT
Moon 6:17 AM CDT (8/6) 7:57 PM CDT (8/6)
Length of Visible Light 14h 49m
Length of Day
13h 52m
Waning Crescent, 0% of the Moon is Illuminated
Aug 6
Waning Crescent
Aug 6
New
Aug 14
First Quarter
Aug 20
Full
Aug 28
Last Quarter

Hourly Weather History & Observations

Time (CDT) Temp. Heat Index Dew Point Humidity Pressure Visibility Wind Dir Wind Speed Gust Speed Precip Events Conditions
12:05 AM 82.4 °F 89.5 °F 75.2 °F 79% 29.87 in 10.0 mi South 6.9 mph - N/A Thunderstorm Clear
12:20 AM 82.4 °F 89.5 °F 75.2 °F 79% 29.86 in 10.0 mi South 8.1 mph - N/A   Clear
12:53 AM 82.0 °F 88.6 °F 75.0 °F 79% 29.83 in 10.0 mi South 8.1 mph - N/A   Clear
1:53 AM 82.0 °F 87.9 °F 73.9 °F 76% 29.84 in 10.0 mi West 19.6 mph 28.8 mph 0.00 in Rain Light Rain
2:06 AM 75.2 °F - 71.6 °F 89% 29.91 in 10.0 mi WNW 23.0 mph 33.4 mph 0.00 in Rain , Thunderstorm Light Thunderstorms and Rain
2:53 AM 72.0 °F - 70.0 °F 93% 29.90 in 6.0 mi WNW 12.7 mph 20.7 mph 0.05 in Rain , Thunderstorm Rain
3:53 AM 72.0 °F - 70.0 °F 93% 29.91 in 6.0 mi Variable 6.9 mph - 0.22 in Rain , Thunderstorm Heavy Thunderstorms and Rain
3:57 AM 71.6 °F - 69.8 °F 94% 29.97 in 3.0 mi West 16.1 mph 20.7 mph 0.08 in Rain Rain
3:59 AM 71.6 °F - 69.8 °F 94% 29.97 in 1.5 mi West 18.4 mph 24.2 mph 0.25 in Rain , Thunderstorm Thunderstorms and Rain
7:53 AM 73.4 °F - 71.6 °F 94% 29.88 in 10.0 mi South 6.9 mph - N/A   Clear
8:53 AM 73.4 °F - 71.6 °F 94% 29.90 in 10.0 mi ESE 6.9 mph - N/A   Clear
9:53 AM 75.9 °F - 71.1 °F 85% 29.89 in 10.0 mi SE 10.4 mph - N/A   Scattered Clouds
10:53 AM 79.0 °F - 73.0 °F 82% 29.89 in 10.0 mi ESE 11.5 mph - N/A   Mostly Cloudy
11:53 AM 81.0 °F 85.8 °F 73.0 °F 77% 29.88 in 10.0 mi ESE 9.2 mph - 0.00 in   Mostly Cloudy
12:53 PM 80.1 °F 84.5 °F 73.9 °F 81% 29.89 in 10.0 mi ESE 5.8 mph - 0.01 in   Mostly Cloudy
1:53 PM 82.0 °F 89.4 °F 75.9 °F 82% 29.86 in 10.0 mi ESE 6.9 mph - 0.01 in   Partly Cloudy
2:53 PM 82.9 °F 90.2 °F 75.0 °F 77% 29.85 in 10.0 mi ESE 5.8 mph - N/A   Mostly Cloudy
3:53 PM 89.1 °F 99.1 °F 75.0 °F 63% 29.83 in 10.0 mi SSE 10.4 mph - N/A   Partly Cloudy
4:53 PM 90.0 °F 100.2 °F 75.0 °F 61% 29.82 in 10.0 mi South 11.5 mph - N/A   Clear
5:53 PM 90.0 °F 100.2 °F 75.0 °F 61% 29.79 in 10.0 mi South 10.4 mph - N/A   Clear
6:53 PM 89.1 °F 100.2 °F 75.9 °F 65% 29.77 in 10.0 mi South 10.4 mph - N/A   Clear
7:53 PM 86.0 °F 96.0 °F 75.9 °F 72% 29.78 in 10.0 mi South 5.8 mph - N/A   Clear
8:53 PM 84.0 °F 92.6 °F 75.9 °F 76% 29.78 in 10.0 mi SE 4.6 mph - N/A   Clear
9:53 PM 82.0 °F 89.4 °F 75.9 °F 82% 29.80 in 10.0 mi SSE 5.8 mph - N/A   Clear
10:53 PM 81.0 °F 86.7 °F 75.0 °F 82% 29.80 in 10.0 mi SSE 6.9 mph - N/A   Clear
11:53 PM 81.0 °F 86.2 °F 73.9 °F 79% 29.82 in 10.0 mi South 8.1 mph - N/A   Clear